Oakland, MD

9:39 PM EDT on July 24, 2017 (GMT -0400)
Oakland

Weather History for K2G4 - December, 2012

Change the Weather History Date:

Monday, December 31, 2012

  Actual Average (KMGW) Record (KMGW)
Temperature  
Mean Temperature 24 °F -  
Max Temperature 28 °F 41 °F 71 °F (1972)
Min Temperature 19 °F 25 °F 3 °F (1983)
Degree Days  
Heating Degree Days 42    
Moisture  
Dew Point 23 °F    
Average Humidity 96    
Maximum Humidity 100    
Minimum Humidity 69    
Precipitation  
Precipitation 0.00 in - - ()
Sea Level Pressure  
Sea Level Pressure 30.05 in    
Wind  
Wind Speed 8 mph (WSW)    
Max Wind Speed 14 mph    
Max Gust Speed 24 mph    
Visibility 8 miles    
Events      
Averages and records for this station are not official NWS values.
T = Trace of Precipitation, MM = Missing Value Source: NWS Daily Summary

Daily Weather History Graph

Daily Weather History Graph

Search for Another Location

Airport or City:

Trip Planner

Search our weather history database for the weather conditions in past years. The results will help you decide how hot, cold, wet, or windy it might be!

Date:

Astronomy

Dec. 31, 2012 Rise Set
Actual Time 7:37 AM EST 5:03 PM EST
Civil Twilight 7:07 AM EST 5:33 PM EST
Nautical Twilight 6:33 AM EST 6:07 PM EST
Astronomical Twilight 6:01 AM EST 6:40 PM EST
Moon 8:31 PM EST (12/31) 9:19 AM EST (12/31)
Length of Visible Light 10h 26m
Length of Day
9h 25m
Waning Gibbous, 90% of the Moon is Illuminated
Dec 31
Waning Gibbous
Jan 4
Last Quarter
Jan 11
New
Jan 18
First Quarter
Jan 26
Full

Hourly Weather History & Observations

Time (EST) Temp. Windchill Dew Point Humidity Pressure Visibility Wind Dir Wind Speed Gust Speed Precip Events Conditions
12:05 AM 19.4 °F 10.4 °F 19.4 °F 100% 30.18 in 7.0 mi West 6.9 mph - N/A   Overcast
12:30 AM 19.4 °F 10.4 °F 19.4 °F 100% 30.18 in 7.0 mi West 6.9 mph - N/A   Overcast
12:50 AM 19.4 °F 11.5 °F 19.4 °F 100% 30.18 in 10.0 mi West 5.8 mph - N/A   Overcast
1:10 AM 19.4 °F 10.4 °F 19.4 °F 100% 30.17 in 10.0 mi West 6.9 mph - N/A   Mostly Cloudy
1:30 AM 19.4 °F 10.4 °F 19.4 °F 100% 30.17 in 10.0 mi WSW 6.9 mph - N/A   Mostly Cloudy
1:55 AM 19.4 °F 10.4 °F 19.4 °F 100% 30.16 in 7.0 mi WSW 6.9 mph - N/A   Scattered Clouds
2:15 AM 19.4 °F 10.4 °F 19.4 °F 100% 30.16 in 10.0 mi WSW 6.9 mph - N/A   Scattered Clouds
2:35 AM 19.4 °F 9.5 °F 19.4 °F 100% 30.15 in 10.0 mi WSW 8.1 mph - N/A   Clear
2:55 AM 19.4 °F 11.5 °F 19.4 °F 100% 30.15 in 10.0 mi WSW 5.8 mph - N/A   Clear
3:20 AM 19.4 °F 10.4 °F 19.4 °F 100% 30.15 in 10.0 mi WSW 6.9 mph - N/A   Clear
3:40 AM 19.4 °F 9.5 °F 19.4 °F 100% 30.14 in 10.0 mi WSW 8.1 mph - N/A   Clear
4:00 AM 19.4 °F 10.4 °F 19.4 °F 100% 30.13 in 10.0 mi WSW 6.9 mph - N/A   Clear
4:25 AM 19.4 °F 10.4 °F 19.4 °F 100% 30.12 in 10.0 mi SW 6.9 mph - N/A   Clear
4:45 AM 19.4 °F 10.4 °F 19.4 °F 100% 30.10 in 10.0 mi SW 6.9 mph - N/A   Clear
5:05 AM 19.4 °F 10.4 °F 19.4 °F 100% 30.10 in 10.0 mi WSW 6.9 mph - N/A   Clear
5:25 AM 19.4 °F 9.5 °F 19.4 °F 100% 30.10 in 10.0 mi WSW 8.1 mph - N/A   Clear
5:50 AM 19.4 °F 10.4 °F 19.4 °F 100% 30.10 in 10.0 mi WSW 6.9 mph - N/A   Clear
6:10 AM 19.4 °F 10.4 °F 19.4 °F 100% 30.10 in 10.0 mi WSW 6.9 mph - N/A   Clear
6:30 AM 21.2 °F 11.7 °F 21.2 °F 100% 30.10 in 10.0 mi WSW 8.1 mph - N/A   Clear
6:50 AM 21.2 °F 10.9 °F 21.2 °F 100% 30.10 in 10.0 mi WSW 9.2 mph - N/A   Clear
7:15 AM 21.2 °F 11.7 °F 21.2 °F 100% 30.10 in 10.0 mi WSW 8.1 mph - N/A   Clear
7:55 AM 21.2 °F 10.9 °F 21.2 °F 100% 30.10 in 10.0 mi WSW 9.2 mph - N/A   Clear
8:15 AM 21.2 °F 10.1 °F 21.2 °F 100% 30.10 in 10.0 mi WSW 10.4 mph - N/A   Clear
8:40 AM 23.0 °F 12.4 °F 23.0 °F 100% 30.10 in 10.0 mi WSW 10.4 mph - N/A   Clear
9:00 AM 23.0 °F 13.1 °F 23.0 °F 100% 30.09 in 7.0 mi WSW 9.2 mph - N/A   Clear
9:20 AM 23.0 °F 11.1 °F 23.0 °F 100% 30.09 in 10.0 mi WSW 12.7 mph 18.4 mph N/A   Clear
9:40 AM 23.0 °F 12.4 °F 23.0 °F 100% 30.09 in 7.0 mi WSW 10.4 mph 17.3 mph N/A   Clear
10:05 AM 24.8 °F 14.0 °F 24.8 °F 100% 30.09 in 10.0 mi WSW 11.5 mph 17.3 mph N/A   Clear
10:25 AM 26.6 °F 15.2 °F 23.0 °F 86% 30.09 in 10.0 mi WSW 13.8 mph - N/A   Clear
10:45 AM 26.6 °F 16.2 °F 23.0 °F 86% 30.09 in 5.0 mi WSW 11.5 mph 17.3 mph N/A   Clear
11:05 AM 26.6 °F 16.8 °F 23.0 °F 86% 30.08 in 10.0 mi WSW 10.4 mph - N/A   Clear
11:30 AM 26.6 °F 16.8 °F 23.0 °F 86% 30.06 in 7.0 mi WSW 10.4 mph 17.3 mph N/A   Clear
11:50 AM 28.4 °F 18.5 °F 23.0 °F 80% 30.06 in 10.0 mi WSW 11.5 mph 17.3 mph N/A   Clear
12:10 PM 28.4 °F 19.1 °F 21.2 °F 74% 30.06 in 10.0 mi WSW 10.4 mph 16.1 mph N/A   Clear
12:30 PM 28.4 °F 18.5 °F 23.0 °F 80% 30.04 in 10.0 mi WSW 11.5 mph 18.4 mph N/A   Clear
12:50 PM 28.4 °F 18.0 °F 21.2 °F 74% 30.03 in 10.0 mi WSW 12.7 mph 19.6 mph N/A   Scattered Clouds
1:15 PM 28.4 °F 18.5 °F 21.2 °F 74% 30.02 in 10.0 mi WSW 11.5 mph 19.6 mph N/A   Scattered Clouds
1:35 PM 28.4 °F 18.5 °F 21.2 °F 74% 30.01 in 10.0 mi WSW 11.5 mph 20.7 mph N/A   Scattered Clouds
1:55 PM 28.4 °F 18.5 °F 19.4 °F 69% 30.01 in 5.0 mi WSW 11.5 mph 24.2 mph N/A   Haze
2:15 PM 28.4 °F 17.5 °F 23.0 °F 80% 30.01 in 5.0 mi WSW 13.8 mph 19.6 mph N/A   Haze
2:40 PM 28.4 °F 18.0 °F 26.6 °F 93% 30.01 in 1.8 mi WSW 12.7 mph 19.6 mph N/A   Scattered Clouds
3:00 PM 26.6 °F 16.8 °F 26.6 °F 100% 30.00 in 1.0 mi WSW 10.4 mph 17.3 mph N/A   Mostly Cloudy
3:20 PM 26.6 °F 16.8 °F 26.6 °F 100% 30.00 in 1.8 mi West 10.4 mph - N/A   Mostly Cloudy
3:40 PM 26.6 °F 17.5 °F 26.6 °F 100% 29.99 in 1.0 mi WSW 9.2 mph 16.1 mph N/A   Overcast
4:05 PM 26.6 °F 18.2 °F 26.6 °F 100% 29.99 in 1.5 mi WSW 8.1 mph - N/A   Overcast
4:25 PM 28.4 °F 20.4 °F 28.4 °F 100% 29.98 in 2.5 mi West 8.1 mph 16.1 mph N/A   Overcast
4:45 PM 28.4 °F 21.2 °F 28.4 °F 100% 29.97 in 1.8 mi WSW 6.9 mph - N/A   Overcast
5:05 PM 28.4 °F 22.2 °F 28.4 °F 100% 29.97 in 4.0 mi WSW 5.8 mph - N/A   Overcast
5:30 PM 28.4 °F 22.2 °F 28.4 °F 100% 29.97 in 3.0 mi WSW 5.8 mph - N/A   Overcast
5:50 PM 28.4 °F 20.4 °F 28.4 °F 100% 29.97 in 2.5 mi WSW 8.1 mph - N/A   Overcast
6:10 PM 28.4 °F 20.4 °F 28.4 °F 100% 30.00 in 4.0 mi WSW 8.1 mph 17.3 mph N/A   Overcast
6:30 PM 28.4 °F 20.4 °F 28.4 °F 100% 29.98 in 2.0 mi WSW 8.1 mph 16.1 mph N/A   Overcast
6:55 PM 28.4 °F 18.0 °F 28.4 °F 100% 29.98 in 5.0 mi WSW 12.7 mph 18.4 mph N/A   Overcast
7:15 PM 26.6 °F 19.1 °F 26.6 °F 100% 29.98 in 10.0 mi WSW 6.9 mph 19.6 mph N/A   Overcast
7:35 PM 26.6 °F 18.2 °F 26.6 °F 100% 29.96 in 10.0 mi WSW 8.1 mph 16.1 mph N/A   Overcast
7:55 PM 26.6 °F 17.5 °F 26.6 °F 100% 29.96 in 10.0 mi WSW 9.2 mph 16.1 mph N/A   Overcast
8:20 PM 26.6 °F 16.8 °F 26.6 °F 100% 29.96 in 2.5 mi WSW 10.4 mph 18.4 mph N/A   Overcast
8:40 PM 26.6 °F 16.8 °F 26.6 °F 100% 29.95 in 2.5 mi WSW 10.4 mph 17.3 mph N/A   Overcast
9:20 PM 26.6 °F 17.5 °F 26.6 °F 100% 29.94 in 4.0 mi WSW 9.2 mph 19.6 mph N/A   Mostly Cloudy
9:45 PM 26.6 °F 15.7 °F 26.6 °F 100% 29.94 in 4.0 mi WSW 12.7 mph 17.3 mph N/A   Overcast
10:05 PM 26.6 °F 16.8 °F 26.6 °F 100% 29.94 in 3.0 mi WSW 10.4 mph 19.6 mph N/A   Overcast
10:25 PM 26.6 °F 16.2 °F 26.6 °F 100% 29.94 in 7.0 mi WSW 11.5 mph 19.6 mph N/A   Overcast
10:45 PM 26.6 °F 15.7 °F 26.6 °F 100% 29.93 in 10.0 mi WSW 12.7 mph 18.4 mph N/A   Mostly Cloudy
11:10 PM 28.4 °F 18.0 °F 28.4 °F 100% 29.92 in 10.0 mi WSW 12.7 mph 20.7 mph N/A   Clear
11:30 PM 28.4 °F 19.1 °F 28.4 °F 100% 29.92 in 10.0 mi West 10.4 mph 18.4 mph N/A   Clear
11:50 PM 28.4 °F 18.5 °F 28.4 °F 100% 29.92 in 10.0 mi WSW 11.5 mph 20.7 mph N/A   Scattered Clouds